Weather History for KRUT - August, 2013

Change the Weather History Date:

Wednesday, August 7, 2013

  Actual Average Record
Temperature  
Mean Temperature 68 °F -  
Max Temperature 79 °F - 92 °F (1965)
Min Temperature 57 °F - 44 °F (1951)
Degree Days  
Heating Degree Days 0    
Month to date heating degree days 15  
Since 1 June heating degree days 140  
Since 1 July heating degree days 33  
Cooling Degree Days 3    
Month to date cooling degree days 11  
Year to date cooling degree days 314  
Since 1 June cooling degree days 287  
Growing Degree Days 18 (Base 50)    
Moisture  
Dew Point 55 °F    
Average Humidity 65    
Maximum Humidity 84    
Minimum Humidity 45    
Precipitation  
Precipitation 0.00 in - 1.38 in (1990)
Month to date precipitation 1.25  
Year to date precipitation 15.07  
Sea Level Pressure  
Sea Level Pressure 30.11 in    
Wind  
Wind Speed 8 mph (SE)    
Max Wind Speed 12 mph    
Max Gust Speed 18 mph    
Visibility 10 miles    
Events      
T = Trace of Precipitation, MM = Missing Value Source: NWS Daily Summary

Daily Weather History Graph

Daily Weather History Graph

Search for Another Location

Airport or City:

Trip Planner

Search our weather history database for the weather conditions in past years. The results will help you decide how hot, cold, wet, or windy it might be!

Date:

Astronomy

Aug. 07, 2013 Rise Set
Actual Time 5:47 AM EDT 8:06 PM EDT
Civil Twilight 5:16 AM EDT 8:38 PM EDT
Nautical Twilight 4:36 AM EDT 9:17 PM EDT
Astronomical Twilight 3:52 AM EDT 10:01 PM EDT
Moon 6:37 AM EDT (8/7) 8:07 PM EDT (8/7)
Length of Visible Light 15h 22m
Length of Day
14h 18m
New Moon, 1% of the Moon is Illuminated
Aug 7
New Moon
Aug 14
First Quarter
Aug 20
Full
Aug 28
Last Quarter
Sep 5
New

Hourly Weather History & Observations

Time (EDT) Temp. Dew Point Humidity Pressure Visibility Wind Dir Wind Speed Gust Speed Precip Events Conditions
12:15 AM 57.2 °F 53.6 °F 88% 30.14 in 10.0 mi SE 8.1 mph - N/A   Clear
12:35 AM 57.2 °F 51.8 °F 82% 30.14 in 10.0 mi SSE 8.1 mph - N/A   Clear
12:55 AM 57.2 °F 51.8 °F 82% 30.14 in 10.0 mi SSE 6.9 mph - N/A   Clear
1:15 AM 57.2 °F 51.8 °F 82% 30.14 in 10.0 mi SE 6.9 mph - N/A   Scattered Clouds
1:35 AM 57.2 °F 51.8 °F 82% 30.14 in 10.0 mi SE 8.1 mph - N/A   Overcast
1:55 AM 57.2 °F 51.8 °F 82% 30.14 in 10.0 mi SE 6.9 mph - N/A   Overcast
2:15 AM 57.2 °F 51.8 °F 82% 30.14 in 10.0 mi SE 9.2 mph - N/A   Overcast
2:35 AM 59.0 °F 51.8 °F 77% 30.14 in 10.0 mi SE 9.2 mph - N/A   Overcast
2:55 AM 59.0 °F 53.6 °F 82% 30.15 in 10.0 mi SE 8.1 mph - N/A   Overcast
3:15 AM 59.0 °F 53.6 °F 82% 30.15 in 10.0 mi SE 8.1 mph - N/A   Overcast
3:35 AM 59.0 °F 53.6 °F 82% 30.15 in 10.0 mi SE 6.9 mph - N/A   Overcast
4:15 AM 60.8 °F 53.6 °F 77% 30.15 in 10.0 mi SSE 4.6 mph - N/A   Overcast
4:35 AM 59.0 °F 53.6 °F 82% 30.15 in 10.0 mi SE 5.8 mph - N/A   Overcast
4:55 AM 60.8 °F 53.6 °F 77% 30.15 in 10.0 mi SE 6.9 mph - N/A   Overcast
5:15 AM 59.0 °F 53.6 °F 82% 30.15 in 10.0 mi SSE 4.6 mph - N/A   Overcast
5:35 AM 60.8 °F 53.6 °F 77% 30.15 in 10.0 mi SSE 4.6 mph - N/A   Overcast
5:55 AM 60.8 °F 53.6 °F 77% 30.15 in 10.0 mi ESE 4.6 mph - N/A   Overcast
6:15 AM 60.8 °F 53.6 °F 77% 30.15 in 10.0 mi SE 8.1 mph - N/A   Overcast
6:35 AM 60.8 °F 53.6 °F 77% 30.15 in 10.0 mi SE 4.6 mph - N/A   Overcast
6:55 AM 60.8 °F 55.4 °F 82% 30.15 in 10.0 mi SSE 4.6 mph - N/A   Overcast
7:15 AM 60.8 °F 55.4 °F 82% 30.15 in 10.0 mi SE 3.5 mph - N/A   Overcast
7:35 AM 60.8 °F 55.4 °F 82% 30.16 in 10.0 mi Calm Calm - N/A   Overcast
7:55 AM 62.6 °F 57.2 °F 82% 30.16 in 10.0 mi SSE 4.6 mph - N/A   Overcast
8:15 AM 64.4 °F 57.2 °F 77% 30.16 in 10.0 mi SE 5.8 mph - N/A   Overcast
8:35 AM 64.4 °F 55.4 °F 73% 30.16 in 10.0 mi SE 6.9 mph - N/A   Mostly Cloudy
8:55 AM 66.2 °F 57.2 °F 73% 30.15 in 10.0 mi SE 6.9 mph - N/A   Partly Cloudy
9:15 AM 66.2 °F 57.2 °F 73% 30.15 in 10.0 mi SE 6.9 mph - N/A   Clear
9:35 AM 68.0 °F 57.2 °F 68% 30.15 in 10.0 mi SE 6.9 mph - N/A   Clear
9:55 AM 69.8 °F 57.2 °F 64% 30.14 in 10.0 mi ESE 8.1 mph - N/A   Clear
10:15 AM 71.6 °F 57.2 °F 60% 30.14 in 10.0 mi SE 8.1 mph - N/A   Clear
10:35 AM 71.6 °F 57.2 °F 60% 30.14 in 10.0 mi SE 3.5 mph - N/A   Clear
10:55 AM 71.6 °F 55.4 °F 57% 30.13 in 10.0 mi Calm Calm - N/A   Clear
11:15 AM 73.4 °F 57.2 °F 57% 30.12 in 10.0 mi ESE 11.5 mph 16.1 mph N/A   Scattered Clouds
11:35 AM 73.4 °F 57.2 °F 57% 30.12 in 10.0 mi ESE 11.5 mph - N/A   Mostly Cloudy
11:55 AM 73.4 °F 55.4 °F 53% 30.12 in 10.0 mi SSW 8.1 mph - N/A   Mostly Cloudy
12:15 PM 75.2 °F 57.2 °F 53% 30.12 in 10.0 mi SE 12.7 mph - N/A   Scattered Clouds
12:35 PM 75.2 °F 55.4 °F 50% 30.11 in 10.0 mi SSE 12.7 mph 18.4 mph N/A   Scattered Clouds
12:55 PM 75.2 °F 57.2 °F 53% 30.11 in 10.0 mi SSE 11.5 mph 17.3 mph N/A   Partly Cloudy
1:15 PM 75.2 °F 57.2 °F 53% 30.10 in 10.0 mi South 10.4 mph - N/A   Mostly Cloudy
1:35 PM 75.2 °F 55.4 °F 50% 30.10 in 10.0 mi South 9.2 mph 16.1 mph N/A   Overcast
1:55 PM 78.8 °F 55.4 °F 44% 30.10 in 10.0 mi South 4.6 mph - N/A   Mostly Cloudy
2:15 PM 75.2 °F 55.4 °F 50% 30.11 in 10.0 mi South 6.9 mph - N/A   Mostly Cloudy
2:35 PM 73.4 °F 55.4 °F 53% 30.11 in 10.0 mi South 8.1 mph - N/A   Overcast
2:55 PM 73.4 °F 57.2 °F 57% 30.11 in 10.0 mi SSE 6.9 mph - N/A   Overcast
3:15 PM 73.4 °F 55.4 °F 53% 30.10 in 10.0 mi SSE 6.9 mph - N/A   Overcast
3:35 PM 73.4 °F 55.4 °F 53% 30.10 in 10.0 mi SSE 10.4 mph - N/A   Overcast
3:55 PM 73.4 °F 57.2 °F 57% 30.09 in 10.0 mi SSE 8.1 mph - N/A   Overcast
4:15 PM 73.4 °F 57.2 °F 57% 30.09 in 10.0 mi SSE 5.8 mph - N/A   Overcast
4:35 PM 73.4 °F 57.2 °F 57% 30.09 in 10.0 mi South 8.1 mph - N/A   Overcast
4:55 PM 73.4 °F 55.4 °F 53% 30.08 in 10.0 mi South 10.4 mph - N/A   Overcast
5:15 PM 73.4 °F 57.2 °F 57% 30.08 in 10.0 mi SSE 6.9 mph - N/A   Mostly Cloudy
5:35 PM 75.2 °F 55.4 °F 50% 30.07 in 10.0 mi South 12.7 mph 16.1 mph N/A   Partly Cloudy
5:55 PM 73.4 °F 55.4 °F 53% 30.07 in 10.0 mi SSE 8.1 mph - N/A   Scattered Clouds
6:15 PM 73.4 °F 55.4 °F 53% 30.07 in 10.0 mi SSE 9.2 mph - N/A   Mostly Cloudy
6:35 PM 71.6 °F 55.4 °F 57% 30.06 in 10.0 mi SSE 10.4 mph - N/A   Overcast
6:55 PM 71.6 °F 55.4 °F 57% 30.07 in 10.0 mi SSE 8.1 mph - N/A   Mostly Cloudy
7:15 PM 71.6 °F 55.4 °F 57% 30.05 in 10.0 mi SE 9.2 mph - N/A   Scattered Clouds
7:35 PM 71.6 °F 55.4 °F 57% 30.06 in 10.0 mi SSE 10.4 mph - N/A   Scattered Clouds
7:55 PM 69.8 °F 55.4 °F 60% 30.06 in 10.0 mi SE 11.5 mph 18.4 mph N/A   Scattered Clouds
8:15 PM 69.8 °F 55.4 °F 60% 30.06 in 10.0 mi SE 9.2 mph 16.1 mph N/A   Partly Cloudy
8:35 PM 69.8 °F 57.2 °F 64% 30.07 in 10.0 mi ESE 10.4 mph - N/A   Mostly Cloudy
8:55 PM 69.8 °F 55.4 °F 60% 30.07 in 10.0 mi SE 10.4 mph - N/A   Overcast
9:15 PM 69.8 °F 55.4 °F 60% 30.07 in 10.0 mi SE 11.5 mph - N/A   Overcast
9:35 PM 68.0 °F 57.2 °F 68% 30.07 in 10.0 mi SE 9.2 mph - N/A   Overcast
9:55 PM 68.0 °F 57.2 °F 68% 30.07 in 10.0 mi SE 10.4 mph - N/A   Overcast
10:15 PM 66.2 °F 57.2 °F 73% 30.07 in 10.0 mi SE 12.7 mph - N/A   Overcast
10:35 PM 66.2 °F 57.2 °F 73% 30.07 in 10.0 mi SE 11.5 mph - N/A   Overcast
10:55 PM 66.2 °F 57.2 °F 73% 30.06 in 10.0 mi ESE 9.2 mph - N/A   Overcast
11:15 PM 66.2 °F 57.2 °F 73% 30.06 in 10.0 mi SE 11.5 mph - N/A   Overcast
11:35 PM 66.2 °F 57.2 °F 73% 30.06 in 10.0 mi ESE 10.4 mph - N/A   Overcast
11:55 PM 66.2 °F 57.2 °F 73% 30.06 in 10.0 mi SSE 10.4 mph - N/A   Overcast